Rochester, NH

6:14 PM EDT on August 16, 2017 (GMT -0400)
Skyhaven

Weather History for KDAW - September, 2014

Change the Weather History Date:

Thursday, September 4, 2014

  Actual Average (KPSM) Record (KPSM)
Temperature  
Mean Temperature 68 °F -  
Max Temperature 82 °F 74 °F 90 °F (1973)
Min Temperature 55 °F 55 °F 35 °F (1987)
Cooling Degree Days 4    
Growing Degree Days 18 (Base 50)    
Moisture  
Dew Point 57 °F    
Average Humidity 69    
Maximum Humidity 93    
Minimum Humidity 37    
Precipitation  
Precipitation 0.00 in - - ()
Sea Level Pressure  
Sea Level Pressure 30.11 in    
Wind  
Wind Speed 4 mph (NW)    
Max Wind Speed 9 mph    
Max Gust Speed -    
Visibility 10 miles    
Events      
Averages and records for this station are not official NWS values.
T = Trace of Precipitation, MM = Missing Value Source: NWS Daily Summary

Daily Weather History Graph

Daily Weather History Graph

Search for Another Location

Airport or City:

Trip Planner

Search our weather history database for the weather conditions in past years. The results will help you decide how hot, cold, wet, or windy it might be!

Date:

Astronomy

Sep. 04, 2014 Rise Set
Actual Time 6:11 AM EDT 7:13 PM EDT
Civil Twilight 5:41 AM EDT 7:42 PM EDT
Nautical Twilight 5:07 AM EDT 8:17 PM EDT
Astronomical Twilight 4:30 AM EDT 8:53 PM EDT
Moon 3:53 PM EDT (9/4) 12:53 AM EDT (9/4)
Length of Visible Light 14h 00m
Length of Day
13h 02m
Waxing Gibbous, 74% of the Moon is Illuminated
Sep 4
Waxing Gibbous
Sep 8
Full
Sep 15
Last Quarter
Sep 24
New
Oct 1
First Quarter

Hourly Weather History & Observations

Time (EDT) Temp. Heat Index Dew Point Humidity Pressure Visibility Wind Dir Wind Speed Gust Speed Precip Events Conditions
12:51 AM 59.0 °F - 55.9 °F 90% 30.07 in 10.0 mi NW 5.8 mph - N/A   Clear
1:51 AM 59.0 °F - 55.9 °F 90% 30.09 in 10.0 mi NW 4.6 mph - N/A   Clear
2:51 AM 59.0 °F - 55.0 °F 87% 30.10 in 10.0 mi NW 8.1 mph - N/A   Clear
3:51 AM 60.1 °F - 55.9 °F 86% 30.10 in 10.0 mi NW 9.2 mph - N/A   Clear
4:51 AM 57.9 °F - 55.0 °F 90% 30.11 in 10.0 mi NW 4.6 mph - N/A   Clear
5:51 AM 55.9 °F - 54.0 °F 93% 30.12 in 10.0 mi NW 4.6 mph - N/A   Clear
7:51 AM 64.0 °F - 57.0 °F 78% 30.15 in 10.0 mi WNW 5.8 mph - N/A   Clear
8:51 AM 68.0 °F - 57.0 °F 68% 30.17 in 10.0 mi WNW 5.8 mph - N/A   Clear
9:51 AM 73.9 °F - 57.9 °F 57% 30.18 in 10.0 mi Calm Calm - N/A   Clear
11:51 AM 80.1 °F 80.1 °F 55.0 °F 42% 30.14 in 10.0 mi Calm Calm - N/A   Clear
1:51 PM 81.0 °F 80.5 °F 54.0 °F 39% 30.12 in 10.0 mi Variable 3.5 mph - N/A   Clear
2:51 PM 82.0 °F 81.3 °F 54.0 °F 38% 30.11 in 10.0 mi Variable 3.5 mph - N/A   Clear
3:51 PM 82.0 °F 81.2 °F 53.1 °F 37% 30.11 in 10.0 mi Variable 3.5 mph - N/A   Clear
5:51 PM 80.1 °F 80.7 °F 59.0 °F 48% 30.09 in 10.0 mi Calm Calm - N/A   Partly Cloudy
6:51 PM 75.0 °F - 60.1 °F 60% 30.09 in 10.0 mi Calm Calm - N/A   Clear
7:51 PM 71.1 °F - 60.1 °F 68% 30.09 in 10.0 mi Calm Calm - N/A   Clear
8:51 PM 69.1 °F - 60.1 °F 73% 30.10 in 10.0 mi Calm Calm - N/A   Clear
9:51 PM 66.9 °F - 60.1 °F 79% 30.10 in 10.0 mi Calm Calm - N/A   Clear
11:51 PM 64.9 °F - 60.1 °F 84% 30.10 in 10.0 mi Calm Calm - N/A   Clear